SCP
0 0 0 0 0 0 0 0 0 0 0 0 0 0 0 0 0 0 0 0 0 0 0 0 0 0 0 0 0 0 0 0 0 0 0 0 0 0
0 0 0 0 0 0 0 0 0 0 0 0 0 0 0 0 0 0 0 0 0 0 0 0 0 0 0 0 0 0 0 0 0 0 0 0 0 0
0 0 0 0 0 0 0 1 1 1 1 0 0 0 0 0 0 0 0 0 0 0 0 0 0 0 0 0 0 0 0 0 0 0 0 0 0 0
1 1 1 1 1 1 1 1 1 1 1 1 0 0 0 0 0 0 0 0 0 0 0 0 0 0 0 0 0 0 0 0 0 0 0 0 0 0
1 1 1 1 1 1 1 1 1 1 1 1 1 1 1 1 1 0 0 0 0 0 0 0 0 0 0 0 0 0 0 0 0 0 0 0 0 0
1 1 1 1 1 1 1 1 1 1 1 1 1 1 1 1 1 0 0 0 0 0 0 0 0 0 0 0 0 0 0 0 0 0 0 0 0 0
1 1 1 1 1 1 1 1 1 1 1 1 1 1 1 1 1 0 0 0 0 0 0 0 0 0 0 0 0 0 0 0 0 0 0 0 0 0
1 1 1 1 1 0 0 0 0 1 1 1 1 1 1 1 1 0 0 0 0 0 0 0 0 0 0 0 0 0 0 0 0 0 0 0 0 0
1 1 1 1 1 1 0 0 0 0 0 1 1 1 1 1 1 1 0 0 0 0 0 0 0 0 0 0 0 0 0 0 0 0 0 0 0 0
1 1 1 1 1 1 1 1 0 0 0 0 1 1 1 1 1 1 1 1 0 0 0 0 0 0 0 0 0 0 0 0 0 0 0 0 0 0
1 1 1 1 1 0 0 1 1 1 0 0 0 0 0 0 0 0 0 0 0 0 1 0 0 0 0 0 0 0 0 0 0 0 0 0 0 0
1 1 1 1 0 0 0 0 1 1 1 0 0 0 0 0 0 0 0 0 0 0 1 1 0 0 0 0 0 0 0 0 0 0 0 0 0 0
1 1 1 0 0 0 0 0 0 1 1 0 0 0 0 0 0 0 0 0 0 0 0 1 0 0 0 0 0 0 0 0 0 0 0 0 0 0
1 1 0 0 0 0 0 0 0 0 0 0 0 0 0 0 0 0 0 0 0 0 0 0 0 0 0 0 0 0 0 0 0 0 0 0 0 0
1 1 0 0 0 0 0 0 0 0 0 0 0 0 0 0 0 0 0 0 0 0 0 0 0 0 0 0 0 0 0 0 0 0 0 0 0 0
1 0 0 0 0 0 0 0 0 0 0 0 0 0 0 0 0 0 0 0 0 0 0 0 0 0 0 0 0 0 0 0 0 0 0 0 0 0
0 0 0 0 0 0 0 0 0 0 0 0 0 0 0 0 0 0 0 0 0 0 0 0 0 0 0 0 0 0 0 0 0 0 0 0 0 0
0 0 1 1 1 0 0 0 0 0 0 0 0 0 0 0 0 0 0 0 0 0 0 0 0 0 0 0 0 0 0 0 0 0 0 0 0 0
0 1 1 1 1 0 0 0 0 0 0 0 0 0 0 0 0 0 0 0 0 0 0 0 0 0 0 0 0 0 0 0 0 0 0 0 0 0
0 1 1 1 1 0 0 0 0 0 0 0 0 0 0 0 0 0 0 0 0 0 0 0 0 0 0 0 0 0 0 0 0 0 0 0 0 0
0 0 1 1 0 0 0 0 0 0 0 0 0 0 0 0 0 0 0 0 0 0 0 0 0 0 0 0 0 0 0 0 0 0 0 0 0 0
0 0 0 0 0 0 0 0 0 0 0 0 0 0 0 0 0 0 0 0 0 0 0 0 0 0 0 0 0 0 0 0 0 0 0 0 0 0
0 0 0 0 0 0 0 0 0 0 0 0 0 0 0 0 0 0 0 0 0 0 0 0 0 0 0 0 0 0 0 0 0 0 0 0 0 0
Wind_Speed
5 5 4 3 3 3 3 4 4 4 3 2 2 2 2 2 3 3 3 6 6 5 4 4 3 3 2 2 2 3 3 3 3 2 2 1 1 3
4 4 5 4 3 4 4 4 4 4 4 1 2 2 2 2 3 3 2 8 7 6 5 4 4 3 3 2 2 3 3 3 3 3 2 2 1 2
5 6 6 6 5 4 4 4 4 4 4 3 1 2 3 3 3 3 4 4 5 8 7 5 4 4 3 2 2 2 2 2 2 2 3 3 2 2
6 6 6 5 6 6 5 6 5 5 5 4 3 3 4 4 4 4 3 4 3 8 8 7 6 5 4 3 3 2 2 2 2 2 2 2 2 2
6 6 6 6 7 6 6 6 5 5 5 5 4 3 3 3 4 4 4 3 4 7 9 9 7 6 5 5 4 4 3 2 2 2 2 2 2 2
6 6 6 6 6 6 6 6 5 5 5 5 4 4 4 4 4 4 4 4 4 4 5 5 7 9 8 7 6 5 5 4 3 2 2 2 2 2
6 6 6 5 5 5 5 5 5 5 5 5 5 4 4 4 5 5 4 4 4 4 4 5 6 6 7 9 8 7 6 6 5 4 4 3 3 3
5 5 5 6 5 6 5 6 6 7 6 6 6 6 6 6 5 5 4 4 4 4 4 4 4 5 5 5 8 9 8 7 6 6 5 5 4 4
5 5 5 4 4 6 6 7 8 9 9 8 8 8 7 6 6 7 6 6 4 3 4 5 5 5 4 4 10 10 9 8 7 6 6 5 5 4
6 6 6 5 5 4 6 7 7 8 8 9 8 8 7 5 6 7 6 6 5 4 5 5 5 5 4 4 10 10 10 9 8 7 6 6 6 5
6 6 6 6 2 3 6 7 7 6 5 5 4 4 3 4 5 6 6 6 5 5 6 5 4 4 4 4 7 12 10 9 9 8 8 7 6 7
5 5 5 5 3 4 7 7 7 6 5 4 5 5 6 7 8 8 7 6 5 5 5 5 5 4 4 4 5 7 8 9 9 9 9 8 7 7
5 5 3 4 5 5 7 7 5 5 5 5 5 5 5 5 7 7 6 6 6 5 4 5 5 5 5 4 4 4 5 5 7 7 8 8 8 8
6 5 3 3 5 6 6 5 4 5 5 5 5 4 4 4 4 5 5 5 5 5 4 4 4 5 5 5 4 4 4 4 4 5 5 8 9 9
5 4 2 3 5 6 7 7 7 6 5 5 5 5 4 4 4 4 4 4 5 5 5 5 5 5 5 5 4 3 3 4 5 5 5 5 6 6
5 4 5 5 6 5 5 6 6 5 5 5 5 4 4 4 4 4 4 4 4 4 5 6 6 6 6 5 5 4 4 4 4 4 4 5 5 6
4 5 5 5 5 5 5 5 4 5 5 5 5 5 4 4 4 4 4 4 5 4 4 5 6 6 6 5 5 5 4 4 3 3 4 5 4 5
5 5 5 5 5 5 5 4 5 5 5 5 5 5 5 5 5 4 5 5 5 5 4 4 4 4 5 5 5 6 5 5 4 4 5 5 5 4
5 5 5 5 5 5 5 5 5 4 4 5 5 5 5 5 5 5 5 5 5 5 4 4 4 5 6 6 5 6 6 4 4 4 5 5 5 4
5 6 6 6 5 5 5 5 5 4 4 5 5 5 5 5 5 5 5 6 5 5 5 5 5 5 6 5 4 3 7 6 5 5 5 5 4 4
5 6 5 5 5 5 5 5 5 5 5 5 5 5 5 5 5 6 5 6 6 6 6 5 4 6 5 3 4 4 4 6 5 4 5 5 5 5
5 5 5 5 5 5 5 5 5 5 5 5 5 5 5 5 6 7 6 6 6 6 6 5 5 5 6 6 6 5 4 4 6 6 5 5 5 5
5 5 4 5 5 5 5 6 6 5 5 5 5 5 5 5 5 6 6 6 5 5 5 5 4 5 6 6 6 5 6 6 5 5 5 7 8 6
Wind_Direction
235 226 239 241 236 240 237 242 257 263 253 197 208 196 207 211 153 207 180 143 153 157 154 150 141 126 111 92 73 67 62 55 49 49 68 110 194 210
240 245 245 244 243 240 239 243 249 263 274 239 225 194 185 210 166 209 178 148 162 164 161 157 147 132 122 111 97 86 78 70 65 67 74 88 114 163
238 234 239 248 246 242 239 239 239 243 254 255 230 178 190 225 184 203 196 196 170 168 168 166 161 152 143 133 121 112 102 89 80 79 85 91 98 119
243 244 243 238 236 245 241 236 234 235 242 242 227 209 204 207 202 211 206 205 182 155 169 172 171 170 168 160 155 149 139 128 111 93 90 100 114 124
242 243 245 243 241 241 243 241 236 232 234 238 230 213 219 205 208 214 213 212 203 160 170 177 179 181 181 177 175 168 164 162 157 146 123 114 119 132
245 245 246 245 243 243 241 238 239 238 229 233 229 216 212 202 211 217 212 205 212 193 179 177 175 185 190 188 188 185 183 184 184 177 166 156 158 159
247 248 249 253 265 260 261 248 241 241 235 231 232 225 218 204 215 218 219 207 205 212 203 194 186 195 190 193 195 195 194 195 198 200 198 196 193 188
248 249 247 235 233 236 252 261 258 248 248 244 241 238 232 224 220 223 218 214 215 197 216 219 210 212 203 196 170 179 194 198 202 205 205 204 202 200
251 248 251 242 235 246 234 234 242 244 243 247 251 250 243 226 222 223 219 224 236 196 210 230 216 223 216 166 154 172 188 195 199 204 207 208 208 206
248 244 247 248 237 247 253 247 244 237 235 239 251 256 257 237 227 233 229 224 227 218 212 237 220 222 216 181 162 178 188 194 197 200 202 206 207 207
251 247 246 249 222 225 249 251 251 247 233 236 262 270 276 240 226 228 221 222 228 215 210 236 230 225 220 207 172 177 186 192 196 198 202 205 209 211
249 245 234 243 226 217 244 249 249 248 248 228 228 233 235 221 210 224 230 231 233 231 205 219 226 223 224 210 196 182 190 193 197 202 202 206 210 225
258 252 237 194 222 232 247 253 252 258 248 240 233 230 228 224 216 219 232 242 245 243 212 208 228 229 237 223 206 205 203 197 194 199 202 205 209 228
263 265 262 185 216 230 234 239 240 242 244 239 235 233 229 228 223 223 229 246 258 258 252 239 241 238 238 238 228 207 209 212 213 210 203 192 205 218
263 276 275 216 220 226 221 221 225 229 232 236 235 236 235 230 226 217 218 224 237 239 233 236 240 240 247 249 248 229 217 214 211 216 216 209 208 208
252 245 228 230 236 240 222 217 226 232 237 244 245 241 236 227 223 221 219 215 225 221 213 222 230 239 242 245 250 246 234 231 217 218 225 226 218 213
237 236 238 232 231 232 231 229 224 221 229 237 240 239 238 233 229 226 221 223 230 228 217 212 214 218 235 248 241 239 240 237 228 217 227 235 234 228
231 236 240 242 244 245 240 234 229 228 232 236 240 243 241 235 228 221 223 228 232 235 233 221 214 216 222 228 236 245 244 240 228 215 222 232 236 231
232 246 249 250 250 248 245 241 238 233 232 235 237 241 241 237 233 228 226 229 233 236 235 226 222 227 234 238 218 214 235 236 232 227 222 229 238 232
241 248 250 251 253 252 247 246 243 238 236 238 239 240 238 236 235 233 231 233 236 236 235 230 227 232 242 252 252 229 208 228 236 237 231 226 229 210
247 249 251 254 255 253 251 246 241 238 240 240 237 236 235 231 235 238 234 229 238 241 241 237 229 233 243 238 241 242 222 205 227 244 245 236 232 227
253 252 252 251 250 252 251 246 242 240 238 237 240 242 237 232 232 237 239 235 232 235 242 237 219 219 227 232 237 238 236 214 205 218 242 257 259 252
252 253 252 249 246 247 246 245 246 245 245 244 240 239 238 236 237 237 239 240 239 238 241 238 228 222 225 227 233 236 233 226 222 213 217 210 212 216